Probability
0 0 0 3 3 0 0 0 0 0 0 0 0 0 0 3 6 13 13 16 26 39 42 42 32 45 55 71 87 90 84 94 90 87 90 90 84 81 77 77 81 77 87 87
0 0 0 3 3 0 0 0 0 0 0 0 0 6 3 6 6 13 19 23 29 29 42 45 52 48 55 77 87 94 94 94 94 94 94 94 94 87 84 90 87 84 87 81
0 0 0 0 0 0 0 0 0 0 0 0 0 3 6 10 10 10 16 19 23 39 35 48 55 58 61 68 87 81 97 94 90 94 94 90 90 94 87 84 84 87 77 77
0 0 0 0 0 0 0 0 0 0 0 0 0 3 6 6 13 10 13 19 29 32 39 45 48 58 58 65 81 90 90 87 87 94 90 90 90 90 90 87 87 87 77 71
0 0 0 0 0 0 0 0 0 0 0 0 0 0 10 3 6 16 13 19 19 29 35 45 45 61 61 58 61 87 90 90 87 87 90 87 84 84 87 87 87 84 77 74
0 0 0 0 0 0 0 0 0 0 0 0 0 0 3 0 13 13 13 19 23 23 39 48 48 65 65 61 65 81 90 84 87 84 84 84 87 84 84 84 77 77 77 81
0 0 0 0 0 0 0 0 0 0 0 0 0 0 6 6 10 6 13 13 16 19 32 48 48 65 71 65 68 77 87 84 81 81 87 81 84 84 84 81 81 77 77 71
0 0 0 0 0 0 0 0 0 0 0 0 0 0 6 3 3 3 16 19 19 23 32 35 48 61 61 61 65 71 84 84 84 77 81 84 81 81 81 81 68 68 68 65
0 0 0 0 0 0 0 0 0 0 0 0 0 10 3 0 0 6 3 13 16 23 26 32 39 45 58 61 68 71 81 84 77 81 87 84 81 81 74 77 74 71 68 58
0 0 0 0 0 0 0 0 0 0 0 0 0 0 6 6 3 6 13 19 26 32 29 32 35 45 55 61 65 68 74 81 77 74 77 65 71 74 74 77 68 74 68 65
0 0 0 0 0 0 0 0 0 0 0 0 0 0 6 6 10 13 13 29 26 26 32 32 35 42 42 39 48 61 71 74 68 68 61 68 71 68 74 74 68 74 74 68
0 0 0 0 0 0 0 0 0 0 6 0 0 3 6 6 6 13 13 29 26 29 32 29 32 39 39 39 42 61 61 68 61 61 68 68 68 68 71 58 65 65 68 61
0 0 0 0 0 0 0 0 0 0 0 0 0 3 10 10 10 13 16 23 32 32 29 26 32 39 42 48 52 55 58 55 55 52 52 65 65 58 58 61 61 61 61 61
0 0 0 0 0 0 0 0 0 0 0 0 0 6 6 10 6 16 23 26 29 35 42 32 35 48 52 58 58 55 48 52 52 55 55 55 55 55 52 58 65 61 61 61
0 0 0 0 0 0 0 0 0 0 0 0 0 6 10 10 6 13 19 26 29 39 32 35 39 55 55 58 61 61 58 58 55 58 58 52 52 58 52 61 55 55 58 52
0 0 0 0 0 0 0 0 0 0 0 0 0 3 10 16 19 16 16 23 35 39 32 42 42 55 58 65 65 61 65 61 58 58 58 55 55 55 55 55 58 55 52 55
0 0 0 0 0 0 0 0 0 0 0 0 0 3 10 23 19 23 16 26 35 35 35 32 35 52 61 65 65 61 58 61 61 55 55 55 55 58 58 52 58 55 55 52
0 10 3 0 0 0 0 0 0 0 0 0 3 6 6 13 23 23 19 10 26 32 39 39 42 52 61 65 65 61 58 58 55 58 61 58 55 55 61 61 61 61 58 55
0 13 3 3 0 0 0 0 0 0 0 0 3 3 6 10 16 19 26 26 32 39 35 52 45 52 48 55 61 58 61 61 55 55 58 58 58 58 58 61 61 65 61 58
0 10 6 3 0 0 0 0 0 0 0 0 3 3 6 6 13 19 23 29 29 32 48 45 39 45 52 55 52 58 61 58 55 55 58 58 58 58 58 58 65 58 61 58
0 6 3 3 3 0 0 0 3 0 0 6 6 6 6 23 19 29 26 32 35 48 48 52 48 52 52 52 52 55 58 55 58 58 58 58 58 61 61 61 61 58 58 58
0 0 6 3 3 0 0 0 3 19 16 6 13 19 16 29 29 35 35 45 45 48 48 55 58 55 58 58 55 58 58 52 55 58 55 55 61 55 48 52 58 58 58 55
0 3 3 3 3 29 10 10 3 3 6 3 6 10 19 23 29 32 35 39 45 45 55 48 52 55 61 61 65 65 55 55 52 52 52 58 48 52 52 52 48 52 48 45
0 6 3 16 6 3 0 3 6 6 6 6 6 10 16 19 32 35 35 35 42 45 52 48 52 55 58 58 61 61 61 61 55 48 55 52 45 45 48 48 42 42 42 45
0 10 3 10 10 10 0 3 0 3 3 3 16 19 23 29 32 39 39 39 48 48 48 48 61 61 61 61 61 52 55 61 58 55 48 48 45 48 48 42 32 32 35 32
0 0 10 10 16 23 16 6 0 3 6 10 16 19 26 29 29 35 42 45 45 48 52 52 48 61 61 55 58 58 48 52 58 52 45 42 45 45 35 32 16 10 6 3
Height
5917 5919 5920 5921 5922 5923 5923 5925 5926 5925 5924 5923 5921 5919 5917 5916 5915 5914 5912 5911 5910 5909 5908 5907 5906 5905 5905 5904 5904 5903 5903 5903 5903 5903 5902 5902 5901 5901 5901 5900 5899 5899 5898 5898
5917 5918 5919 5921 5922 5923 5924 5925 5924 5925 5923 5922 5921 5919 5916 5914 5914 5913 5912 5911 5910 5908 5907 5906 5906 5905 5905 5904 5904 5904 5903 5903 5903 5902 5902 5901 5901 5900 5900 5899 5899 5898 5897 5897
5914 5917 5918 5920 5921 5923 5923 5924 5924 5923 5923 5922 5921 5919 5915 5913 5914 5913 5911 5910 5909 5908 5907 5906 5905 5905 5904 5904 5903 5903 5903 5902 5902 5901 5901 5901 5900 5900 5899 5898 5898 5897 5896 5895
5913 5915 5917 5917 5919 5921 5921 5922 5922 5921 5921 5921 5921 5919 5916 5912 5911 5910 5910 5909 5908 5907 5906 5904 5904 5904 5904 5903 5902 5902 5902 5901 5901 5900 5900 5900 5899 5898 5898 5897 5896 5895 5894 5893
5911 5914 5916 5916 5918 5919 5919 5919 5919 5919 5919 5919 5919 5918 5915 5911 5909 5908 5908 5908 5907 5906 5905 5904 5903 5903 5902 5902 5901 5901 5900 5900 5899 5899 5899 5898 5898 5897 5896 5895 5894 5893 5892 5891
5908 5911 5913 5914 5915 5916 5916 5917 5916 5916 5916 5917 5916 5915 5913 5909 5908 5907 5907 5907 5906 5905 5904 5903 5902 5902 5901 5900 5900 5900 5899 5897 5897 5897 5897 5896 5896 5895 5894 5893 5893 5891 5890 5889
5906 5909 5910 5911 5912 5914 5914 5915 5915 5914 5913 5913 5913 5913 5911 5908 5908 5906 5906 5906 5905 5904 5903 5902 5901 5900 5899 5899 5898 5898 5898 5897 5896 5895 5895 5894 5893 5893 5892 5891 5890 5889 5888 5887
5904 5906 5908 5908 5910 5910 5910 5912 5913 5913 5912 5911 5911 5910 5909 5908 5907 5906 5904 5904 5903 5902 5901 5900 5899 5898 5898 5897 5897 5896 5896 5895 5894 5893 5893 5892 5891 5890 5889 5889 5888 5886 5885 5884
5900 5902 5905 5905 5905 5907 5907 5908 5910 5911 5910 5909 5907 5907 5905 5904 5904 5903 5902 5901 5901 5899 5898 5899 5898 5897 5896 5895 5895 5894 5893 5893 5892 5891 5890 5889 5888 5887 5886 5886 5885 5883 5882 5881
5896 5898 5900 5901 5902 5903 5904 5905 5907 5907 5906 5906 5905 5903 5903 5901 5900 5900 5900 5899 5899 5897 5896 5896 5895 5895 5894 5893 5892 5892 5891 5890 5889 5888 5887 5886 5885 5884 5883 5882 5882 5880 5879 5877
5891 5892 5896 5897 5898 5899 5901 5902 5903 5903 5904 5904 5903 5903 5900 5899 5897 5897 5895 5895 5896 5895 5894 5893 5893 5892 5891 5890 5889 5888 5887 5886 5885 5884 5883 5882 5881 5881 5880 5879 5878 5877 5875 5874
5885 5887 5889 5891 5894 5895 5896 5897 5899 5900 5900 5900 5900 5900 5898 5895 5894 5893 5892 5892 5892 5892 5891 5890 5889 5888 5887 5886 5885 5884 5883 5883 5882 5880 5879 5878 5877 5876 5875 5875 5874 5873 5871 5870
5880 5881 5884 5886 5889 5890 5890 5892 5893 5895 5896 5896 5896 5895 5893 5890 5889 5888 5886 5888 5888 5887 5886 5885 5884 5883 5882 5881 5881 5880 5879 5878 5877 5876 5875 5874 5873 5871 5871 5870 5869 5868 5867 5865
5872 5874 5877 5879 5881 5884 5883 5886 5887 5889 5890 5890 5890 5889 5888 5886 5884 5883 5882 5882 5882 5882 5881 5880 5879 5878 5878 5877 5876 5875 5874 5873 5872 5871 5870 5869 5868 5867 5866 5865 5864 5863 5862 5861
5864 5867 5869 5871 5873 5875 5877 5879 5880 5881 5882 5884 5883 5883 5882 5880 5878 5877 5877 5877 5876 5877 5876 5875 5874 5873 5872 5872 5871 5870 5869 5868 5867 5866 5865 5864 5863 5862 5861 5860 5859 5858 5857 5856
5856 5859 5861 5864 5866 5867 5869 5872 5873 5874 5875 5876 5877 5877 5876 5873 5872 5871 5871 5871 5870 5870 5870 5869 5869 5868 5867 5866 5866 5865 5863 5862 5861 5860 5860 5859 5858 5856 5855 5854 5853 5852 5851 5850
5849 5851 5853 5856 5859 5860 5861 5864 5866 5867 5868 5869 5869 5870 5869 5866 5864 5865 5864 5864 5864 5864 5863 5863 5862 5861 5860 5860 5859 5858 5857 5856 5855 5854 5854 5853 5852 5850 5849 5848 5847 5846 5844 5843
5841 5843 5845 5848 5851 5852 5857 5858 5859 5859 5860 5862 5861 5861 5860 5857 5857 5858 5858 5857 5857 5857 5856 5856 5855 5854 5854 5853 5852 5851 5850 5849 5848 5848 5847 5846 5845 5844 5843 5841 5840 5839 5837 5836
5834 5835 5838 5841 5842 5844 5849 5851 5851 5852 5852 5853 5853 5852 5851 5850 5850 5850 5850 5849 5849 5849 5849 5849 5848 5848 5847 5846 5845 5844 5843 5842 5841 5840 5839 5839 5838 5837 5835 5834 5833 5831 5830 5829
5827 5828 5831 5833 5835 5838 5842 5843 5843 5845 5844 5845 5844 5843 5843 5842 5843 5842 5842 5842 5842 5842 5842 5841 5841 5840 5839 5838 5837 5836 5836 5835 5834 5833 5832 5831 5830 5829 5828 5827 5825 5824 5822 5820
5820 5821 5824 5826 5828 5831 5834 5833 5835 5837 5836 5835 5835 5835 5834 5834 5834 5834 5834 5834 5834 5834 5833 5833 5832 5832 5831 5830 5828 5827 5827 5827 5826 5825 5824 5823 5822 5821 5820 5818 5817 5815 5813 5812
5812 5815 5817 5819 5821 5825 5825 5825 5827 5826 5826 5827 5827 5827 5825 5825 5825 5825 5825 5825 5824 5824 5825 5824 5824 5823 5823 5822 5820 5819 5818 5818 5817 5816 5815 5814 5813 5812 5810 5809 5808 5806 5804 5803
5805 5808 5809 5812 5815 5815 5816 5817 5817 5817 5818 5818 5818 5818 5817 5817 5817 5817 5816 5816 5816 5816 5816 5816 5815 5815 5814 5813 5812 5811 5811 5809 5808 5807 5806 5805 5803 5802 5801 5799 5798 5797 5795 5793
5799 5801 5803 5804 5805 5807 5808 5808 5809 5809 5810 5810 5809 5809 5809 5808 5808 5808 5807 5807 5807 5807 5807 5807 5806 5806 5805 5804 5803 5802 5801 5800 5799 5798 5796 5795 5794 5793 5791 5790 5789 5787 5786 5784
5791 5793 5795 5796 5797 5798 5799 5800 5800 5801 5801 5801 5800 5800 5800 5799 5799 5799 5798 5797 5797 5798 5798 5797 5797 5796 5796 5795 5794 5793 5792 5791 5790 5788 5787 5786 5785 5783 5782 5781 5779 5778 5777 5775
5782 5784 5786 5788 5789 5790 5790 5790 5791 5791 5792 5792 5792 5792 5791 5791 5790 5789 5789 5788 5788 5788 5787 5787 5787 5786 5786 5785 5784 5783 5782 5781 5780 5779 5777 5776 5775 5774 5772 5771 5769 5768 5767 5765
Wind_Speed
5 4 4 5 5 4 3 2 4 6 7 6 7 9 10 11 10 10 11 10 9 9 8 8 7 7 7 6 5 4 5 5 5 5 5 5 5 6 6 6 6 7 7 7
7 8 6 6 6 6 5 7 5 7 8 7 7 10 11 12 12 12 11 10 9 9 8 7 7 6 7 6 6 6 6 5 5 5 6 6 6 6 7 7 7 8 8 8
11 7 8 9 7 7 7 8 8 8 9 8 9 12 12 12 13 12 12 10 10 9 9 7 7 7 7 7 7 7 7 7 7 7 7 7 7 8 8 8 9 9 9 9
11 8 10 10 8 8 9 9 10 9 9 9 9 13 14 14 11 11 10 10 9 9 9 7 8 8 8 8 8 8 8 8 9 9 9 9 9 9 9 9 10 10 10 10
12 12 12 12 11 11 12 12 11 9 8 8 10 13 15 16 13 11 11 10 10 10 9 9 8 9 9 8 9 9 9 9 10 10 10 10 10 10 10 11 11 11 11 11
14 13 13 14 13 11 11 10 8 9 9 12 12 14 13 15 13 12 12 11 10 11 11 11 10 9 9 9 9 9 10 10 10 11 11 12 12 12 12 12 13 13 13 12
14 14 15 14 12 12 12 11 10 11 12 12 12 13 15 14 14 13 12 12 11 11 11 11 11 11 10 10 11 10 10 11 11 12 12 13 13 13 13 13 14 14 14 14
15 16 16 14 15 15 14 12 11 12 12 13 13 13 13 13 14 13 13 12 12 12 12 12 12 12 12 12 12 12 12 12 12 13 13 13 15 15 14 15 15 15 15 15
18 18 17 17 16 15 15 13 12 14 13 14 14 13 12 14 15 14 14 15 14 13 12 13 13 13 13 13 13 13 14 14 14 14 14 14 15 15 15 15 15 16 16 16
18 20 19 18 18 17 16 14 13 14 15 14 13 13 15 16 17 15 14 16 16 16 15 15 14 15 15 15 15 15 16 16 16 16 15 15 17 17 17 17 17 17 17 17
22 21 19 20 20 17 17 16 16 16 15 15 15 17 18 18 16 15 14 16 18 17 18 17 16 16 17 17 17 17 17 17 17 18 18 18 18 18 19 18 18 18 18 19
24 23 22 21 21 20 19 19 18 17 17 16 17 20 20 19 18 17 16 18 19 19 19 20 20 19 19 19 19 19 19 19 19 19 19 19 20 20 19 19 19 19 19 20
26 26 24 22 21 21 20 19 18 18 18 18 18 21 20 21 19 19 18 20 22 20 20 21 22 21 20 20 20 20 21 21 21 21 20 21 21 21 21 21 21 21 20 20
28 29 28 26 24 23 22 21 21 21 21 21 21 21 21 23 22 22 22 23 23 22 22 23 23 22 21 22 22 22 22 22 22 22 21 21 22 23 22 22 22 22 21 21
29 31 30 29 26 25 25 24 25 25 24 23 24 24 24 26 25 25 26 25 24 23 24 24 24 23 22 22 23 23 23 23 23 23 23 23 23 23 23 23 23 23 23 23
29 29 29 29 27 26 26 27 26 26 26 25 26 27 26 26 27 27 27 26 25 25 24 24 24 23 23 22 23 24 24 25 25 24 24 24 24 24 25 25 24 25 24 24
27 29 30 29 27 28 28 26 25 26 26 25 27 27 27 28 27 27 28 27 26 25 25 25 25 24 24 24 25 25 26 26 26 26 25 26 26 26 26 26 27 26 26 26
28 28 29 29 28 31 28 26 27 26 26 26 29 29 30 31 28 28 29 29 28 27 26 25 25 25 25 25 26 26 26 27 27 27 27 27 27 27 28 27 27 28 28 28
26 28 28 28 29 30 26 25 25 27 28 28 29 29 30 31 32 31 30 30 30 28 27 27 26 27 26 26 27 27 27 27 28 28 28 29 29 30 30 30 30 30 30 30
26 27 28 28 28 27 24 24 26 28 30 28 29 29 30 32 31 32 30 30 30 29 29 29 29 28 28 29 29 28 28 28 28 29 29 30 31 31 31 32 32 33 33 32
28 28 29 28 28 26 25 26 26 27 28 29 30 30 31 32 32 31 30 30 30 29 29 29 30 30 30 30 29 28 29 29 30 30 30 31 32 32 33 33 34 34 34 34
29 29 29 28 27 27 26 26 27 28 29 30 31 32 33 33 32 32 32 31 31 31 30 30 30 30 31 31 31 31 30 31 31 31 32 32 32 33 34 34 34 34 34 34
27 27 27 28 29 29 28 29 29 30 31 31 32 33 35 35 32 33 34 34 34 33 32 32 31 31 32 32 32 32 31 31 32 32 32 33 33 33 33 33 34 34 35 35
26 24 24 25 27 28 29 30 31 31 32 32 32 33 33 33 32 34 35 35 34 33 33 33 32 32 32 32 32 32 32 32 32 32 32 32 32 33 33 33 35 35 36 35
25 25 25 26 26 27 30 30 31 32 33 33 32 32 33 32 33 34 34 33 33 33 33 34 34 33 33 33 33 33 33 32 32 32 32 33 33 33 34 34 35 35 36 36
26 26 27 28 29 29 29 29 31 33 34 33 33 33 33 33 32 32 32 32 32 33 34 34 34 34 34 33 33 33 33 33 33 33 33 34 34 34 35 35 35 35 35 35
Wind_Direction
190 196 231 262 277 273 276 293 300 307 310 309 311 317 320 327 337 334 331 332 336 339 340 338 338 340 341 344 346 344 336 333 331 334 334 317 324 329 329 329 327 324 322 321
223 229 232 240 256 267 270 270 276 291 300 308 309 310 313 316 328 328 328 329 329 331 331 335 336 336 333 336 330 329 324 321 323 324 326 324 319 321 324 325 322 317 313 311
229 233 246 240 239 249 257 266 270 273 287 305 305 301 306 306 316 318 319 322 324 326 325 333 336 330 328 328 326 322 320 318 314 314 316 319 318 315 317 319 319 315 309 304
236 234 248 247 248 259 263 259 268 273 281 286 288 290 296 295 304 308 312 312 317 323 328 330 334 328 325 324 326 321 318 312 313 315 315 315 315 313 312 314 315 314 309 302
234 233 241 246 245 251 252 251 261 269 272 280 282 280 289 300 303 309 314 310 308 312 318 321 322 322 319 320 323 320 315 308 307 310 309 307 308 308 310 313 313 313 309 305
232 235 243 245 245 251 259 261 274 284 272 266 266 266 274 283 298 305 308 308 306 305 310 312 312 315 315 313 314 316 313 308 308 309 308 307 306 308 307 310 309 309 311 308
239 242 251 251 245 247 250 262 273 275 272 272 273 270 277 282 294 297 301 300 299 298 302 305 304 306 310 310 313 316 313 313 306 304 303 305 305 307 308 309 310 310 311 311
238 241 244 244 244 246 249 254 262 276 279 283 280 271 276 279 286 290 294 294 293 293 297 301 302 307 309 308 308 308 309 310 306 301 300 301 303 304 306 308 309 310 306 305
234 241 241 246 250 247 244 248 255 265 264 269 270 272 277 275 280 280 288 298 300 293 291 295 301 303 301 302 303 302 304 305 304 302 303 303 303 301 302 304 308 311 310 308
233 241 241 245 249 249 251 249 256 262 266 269 274 275 276 277 283 279 278 290 294 294 293 295 294 293 294 295 297 296 296 299 298 297 296 299 301 301 301 303 304 304 306 308
236 239 238 240 247 243 247 249 247 251 255 267 274 276 281 282 281 277 279 286 290 293 290 290 291 293 292 291 291 292 293 295 297 297 297 298 300 301 301 300 301 301 301 303
240 240 242 243 247 245 245 247 249 250 254 259 267 272 279 280 274 274 275 281 286 288 288 287 286 287 288 289 289 289 290 291 292 293 294 297 297 298 299 297 298 300 300 299
239 239 241 243 245 247 245 245 248 252 257 261 263 269 275 275 274 272 272 277 282 285 286 285 284 284 285 285 286 287 289 290 290 291 293 293 294 296 297 296 297 297 297 297
239 240 238 241 245 245 247 245 246 246 250 255 255 260 268 273 273 271 272 275 279 282 284 282 281 280 281 284 286 288 288 288 290 290 291 292 294 295 296 295 295 295 295 294
241 241 240 241 246 246 249 249 249 249 247 249 254 258 267 272 272 274 275 276 279 279 280 282 282 280 280 284 286 287 287 288 289 290 291 293 293 294 294 293 293 293 293 293
244 242 242 243 243 247 248 252 252 251 250 251 256 262 267 268 267 271 274 275 278 278 279 282 282 282 282 283 285 286 286 285 286 287 289 290 292 292 292 291 291 292 292 293
245 244 242 244 246 249 250 252 254 252 251 252 255 259 263 263 265 272 275 276 277 277 279 279 279 281 283 283 283 283 283 282 282 284 285 288 290 291 291 293 292 291 292 292
244 245 246 246 245 248 252 256 257 256 256 254 257 260 263 263 267 269 271 273 276 276 278 277 279 280 282 283 282 283 283 282 281 281 283 285 287 288 289 291 292 291 291 292
244 245 244 244 247 250 251 251 255 256 254 253 256 261 262 265 270 272 271 272 274 276 276 276 277 279 280 280 280 281 282 283 283 283 282 283 285 286 287 289 291 290 290 290
240 243 244 244 245 248 252 254 253 254 257 257 257 259 261 264 268 270 271 273 274 275 275 275 277 278 279 279 279 280 281 282 283 283 282 283 284 285 286 287 289 289 289 290
238 242 245 246 250 251 252 254 255 253 254 255 258 261 262 264 266 270 273 273 273 273 273 274 277 278 278 278 280 280 281 283 283 282 282 282 282 283 284 286 287 287 288 289
241 242 245 246 249 250 251 255 255 255 256 257 258 261 263 265 266 269 270 271 272 271 272 273 275 277 277 279 279 281 281 281 282 282 282 282 282 282 283 283 284 285 287 288
245 246 250 249 250 252 252 254 257 259 260 260 262 264 265 266 268 271 272 272 272 272 272 273 274 276 277 278 279 280 281 281 282 282 281 281 281 282 283 282 283 283 286 286
245 243 245 248 250 251 251 254 259 261 261 263 264 267 268 269 271 272 273 275 275 273 273 274 275 276 277 278 279 281 282 283 282 282 282 281 280 282 283 283 283 285 286 287
239 241 242 245 248 253 254 255 259 264 265 265 267 269 271 272 274 274 275 277 275 273 273 274 275 276 277 278 279 279 280 280 280 280 281 282 281 281 282 283 283 284 285 285
235 239 243 246 249 253 257 260 262 265 265 266 269 271 272 273 273 275 275 276 276 276 275 275 275 276 276 277 277 278 278 278 278 279 280 281 280 280 282 283 283 283 283 285